AEROCUBE 8C

Last updated on Wed Oct 29 2025 00:03:53 GMT+0000 (Coordinated Universal Time)

1 41853U 16067F 25301.52700080 .00011439 00000+0 53224-3 0 9990 2 41853 98.0816 146.8943 0006572 130.6585 229.5221 15.20111652490817
UTC large
Height (km)
Speed (km/s)
/
Latitude / Longitude
Inclination (degrees)
Orbital Period (minutes)
Azimuth
Elevation
Range (km)
Doppler Factor

Next 0 passes for location: London (51.5072 / 0.1276)

Sorry there are no passes over London.